www.pogodaiklimat.ru

Погода и климат >> Архив погоды >> Саудовская Аравия >> Аль-Ула


ПОГОДА в Аль-Уле

  • Прогноз погоды в Аль-Уле
  • Монитор погоды в Аль-Уле

АРХИВ ПОГОДЫ в Аль-Уле

Время (UTC), дата Ветер
(напр.,м/с)
 
Видим.   Явления Облачность Т
(С)
Тd
(С)
f
(%)
Тe
(С)
Тes
(С)
Комфортность P
(гПа)
Po
(гПа)
Тmin
(С)
Tmax
(С)
R
(мм)
R24
(мм)
S
(см)
18 17.06 З 2 10 км ясно +34.4 -3.0 9 +30 +30 жарко 1006.8 941.1 +40.8
06 18.06 С 5 10 км ясно +31.4 +7.0 22 +30 +35 жарко 1009.1 943.8 +23.0
09 18.06 СВ 2 10 км ясно +35.2 +3.0 13 +32 +54 опасность
солнечного
удара
1008.8 943.5
12 18.06 ЮЗ 5 10 км ясно +37.4 0.0 10 +34 +41 очень
жарко
1008.1 942.8
15 18.06 штиль 0 10 км ясно +38.4 -2.0 8 +34 +37 очень
жарко
1006.7 941.4
18 18.06 СЗ 5 10 км ясно +35.7 +1.0 11 +32 +32 жарко 1006.7 941.4 +39.5
06 19.06 СЗ 8 10 км ясно +30.6 +8.0 24 +30 +31 жарко 1009.3 943.2 +27.2
09 19.06 С 6 10 км ясно +33.6 +6.0 18 +31 +40 жарко 1008.9 942.8
12 19.06 ЮВ 2 10 км ясно +37.5 +3.0 12 +34 +49 очень
жарко
1007.8 941.7
15 19.06 ЮЗ 2 10 км ясно +37.6 +1.0 10 +34 +36 очень
жарко
1007.0 940.9
18 19.06 С 4 10 км ясно +36.0 -2.0 9 +32 +32 жарко 1007.0 940.9 +39.3
06 20.06 ЮЗ 1 10 км ясно +33.4 +3.0 15 +31 +43 жарко 1008.3 942.7 +28.1
09 20.06 С 6 10 км ясно +38.4 +1.0 10 +35 +43 очень
жарко
1007.7 942.1
12 20.06 СЗ 5 10 км ясно +39.7 -3.0 7 +36 +43 очень
жарко
1007.4 941.3
15 20.06 В 5 10 км ясно +40.3 -4.0 6 +36 +37 очень
жарко
1006.4 940.4
18 20.06 С 4 10 км ясно +37.7 -4.0 7 +34 +34 очень
жарко
1006.9 940.8 +41.2
06 21.06 штиль 0 10 км ясно +35.2 -1.0 10 +31 +46 жарко 1006.1 941.5 +28.3
09 21.06 ЮЗ 3 10 км ясно +40.7 -2.0 7 +37 +55 опасность
солнечного
удара
1005.8 941.2
12 21.06 Ю 8 10 км ясно +42.6 -3.0 6 +39 +41 очень
жарко
1003.7 939.1
15 21.06 СЗ 8 10 км ясно +42.1 -3.0 6 +38 +38 очень
жарко
1002.9 938.3
18 21.06 СЗ 8 10 км ясно +38.2 +12.0 21 +38 +38 очень
жарко
1002.9 938.3 +44.0
06 22.06 ЮЗ 3 10 км ясно +37.1 -3.0 8 +33 +42 жарко 1003.7 939.8 +28.1
09 22.06 Ю 3 10 км ясно +41.0 -6.0 5 +37 +55 опасность
солнечного
удара
1003.7 939.8 +28.1
12 22.06 ЮЗ 8 10 км ясно +43.5 -1.1 6 +40 +42 очень
жарко
1001.8 937.9
15 22.06 З 10 10 км ясно +41.5 -3.0 6 +37 +37 очень
жарко
1001.3 937.4
18 22.06 З 8 10 км ясно +38.3 -6.0 6 +34 +34 очень
жарко
1001.9 938.0 +44.5
06 23.06 З 8 10 км ясно +35.6 -2.0 9 +32 +33 жарко 1004.0 939.4 +26.9
09 23.06 З 4 10 км ясно +40.2 -7.0 5 +36 +50 очень
жарко
1003.7 939.1
12 23.06 ЮЗ 5 10 км ясно +42.1 -5.0 5 +38 +46 очень
жарко
1002.9 938.3
15 23.06 З 8 10 км ясно +42.2 -8.0 4 +38 +38 очень
жарко
1001.7 937.1
18 23.06 СЗ 9 10 км ясно +38.0 -6.0 6 +34 +34 очень
жарко
1002.3 937.7 +43.9
06 24.06 З 3 10 км ясно +35.0 0.0 11 +31 +40 жарко 1003.7 939.5 +25.9
09 24.06 ЮЗ 5 10 км ясно +41.5 -9.0 4 +37 +48 очень
жарко
1003.0 939.0
12 24.06 СВ 3 10 км ясно +43.2 -11.0 3 +39 +51 опасность
солнечного
удара
1002.1 938.1
15 24.06 Ю 4 10 км ясно +42.8 -8.0 4 +38 +39 очень
жарко
1001.4 937.4

 

Местоположение метеостанции Аль-Ула (Саудовская Аравия): широта 26.48 долгота 38.12 высота над уровнем моря 624 м.

В архиве по умолчанию представлена погода в Аль-Уле за последнюю неделю. Архивные данные за месяц целиком и за предыдущие месяцы, начиная с января 2011 года, Вы можете получить, выбрав интересующий диапазон дат из раскрывающегося списка и нажав кнопку "Ввод!".


*Определитесь, кто Вы:
робот инопланетянин человек

Внимание! Время в таблицах - всемирное. Для получения местного времени необходимо прибавить поправку, которая равна 3 ч.

Смотрите также архив погоды в соседних городах и на ближайших метеорологических станциях:

Погода в Эль-Ваджхе (Саудовская Аравия) (166 км)
Погода в Табуке (Саудовская Аравия) (259 км)
Погода в Янбу (Саудовская Аравия) (261 км)
Погода в Медине (Саудовская Аравия) (267 км)
Погода в Хаиле (Саудовская Аравия) (368 км)
Погода в Эль-Кусейре (Египет) (398 км)
Погода в Эль-Джауфе (Саудовская Аравия) (415 км)
Погода в Хургаде (Египет) (443 км)
Погода в Шалатейне (Египет) (452 км)
Погода в Акаба (Иордания) (459 км)

Пояснения к столбцам:

Ветер - указаны скорость ветра в м/с - средняя за 10 мин, порывы в срок и между сроками (в фигурных скобках) и направление, откуда дует ветер: С - северный, СВ - северо-восточный, В - восточный, ЮВ - юго-восточный, Ю - южный, ЮЗ - юго-западный, З - западный, СЗ - северо-западный.
Видимость - горизонтальная дальность видимости в метрах или километрах. При видимости от 1 до 10 км при отсутствии осадков обычно наблюдается дымка, при ухудшении видимости до 1 км и менее - туман. В сухую погоду видимость может ухудшаться дымом, пылью или мглою.
Явления - указаны атмосферные явления, наблюдавшиеся в срок или в последний час перед сроком; фигурными скобками обозначены явления, наблюдавшиеся между сроками (за 1-3 часа до срока); квадратными скобками обозначены град или гололедные отложения с указанием их диаметра в мм.
Облачность - указаны через наклонную черту общая и нижняя облачность в баллах и высота нижней границы облаков в метрах; квадратными скобками обозначены формы облаков: Ci - перистые, Cs - перисто-слоистые, Cc - перисто-кучевые, Ac - высококучевые, As - высокослоистые, Sc - слоисто-кучевые, Ns - слоисто-дождевые, Cu - кучевые, Cb - кучево-дождевые. Подробнее классификацию облаков см. в Атласе облаков (PDF).
T - Температура воздуха - температура, измеренная на высоте 2 м над землей.
Td - Температура точки росы - температура, при понижении до которой содержащийся в воздухе водяной пар достигнет насыщения.
f - Относительная влажность воздуха - влажноcть воздуха, измеренная на высоте 2 м над землей.
Te - Эффективная температура - температура, которую ощущает одетый по сезону человек в тени. Характеристика душности погоды. При расчете учитывается влияние влажности воздуха и скорости ветра на теплоощущения человека.
Tes - Эффективная температура на солнце - температура, которую ощущает человек, с поправкой на солнечный нагрев. Характеристика знойности погоды. Зависит от высоты солнца над горизонтом, облачности и скорости ветра. Ночью, в пасмурную погоду, а также при ветре 12 м/с и более поправка равна нулю.
P - Атмосферное давление - приведенное к уровню моря атмосферное давление.
Po - Атмосферное давление - измеренное на уровне метеостанции атмосферное давление.
Tmin - Минимальная температура - минимум температуры воздуха на высоте 2 м над землей.
Tmax - Максимальная температура - максимум температуры воздуха на высоте 2 м над землей.
R - Количество осадков - Количество выпавших осадков за период времени, мм. При наведении курсора мыши на число - период времени, за который выпало указанное количество осадков.
R24 - Количество осадков - Количество выпавших осадков за 24 часа, мм.
S - Снежный покров - Высота снежного покрова, см. При наведении курсора мыши на число - состояние снежного покрова и степень покрытия местности в баллах.